N7JMV Weather Reports


Display with metric or nautical units.
time (UTC)temp
F
wind
direction
speed
MPH
gust
MPH
rain 1hr
in
rain 24hr
in
rain mn
in
humidity
%
barometer
mb
20260503203504 79 240 4.0 10.0 0.00 0.00 0.00 38 1012.8
20260503203020 78 158 1.0 8.0 0.00 0.00 0.00 39 1012.7
20260503202503 78 150 4.0 7.0 0.00 0.00 0.00 39 1012.7
20260503202006 78 157 1.0 7.0 0.00 0.00 0.00 41 1012.8
20260503201518 78 207 2.0 9.0 0.00 0.00 0.00 40 1012.8
20260503201008 77 224 3.0 9.0 0.00 0.00 0.00 42 1013.0
20260503200508 77 98 0.0 6.0 0.00 0.00 0.00 41 1013.0
20260503200021 77 146 4.0 8.0 0.00 0.00 0.00 42 1013.1
20260503195506 76 203 4.0 8.0 0.00 0.00 0.00 42 1013.2
20260503195012 76 123 3.0 8.0 0.00 0.00 0.00 44 1013.2
20260503194524 75 207 3.0 8.0 0.00 0.00 0.00 43 1013.4
20260503194010 75 231 4.0 8.0 0.00 0.00 0.00 45 1013.4
20260503193513 75 203 4.0 8.0 0.00 0.00 0.00 46 1013.5
20260503193011 75 143 0.0 8.0 0.00 0.00 0.00 48 1013.5
20260503192509 74 212 3.0 10.0 0.00 0.00 0.00 47 1013.6
20260503192005 74 137 3.0 10.0 0.00 0.00 0.00 47 1013.6
20260503191518 74 160 3.0 9.0 0.00 0.00 0.00 48 1013.7
20260503191007 73 187 2.0 8.0 0.00 0.00 0.00 49 1013.7
20260503190506 73 199 3.0 12.0 0.00 0.00 0.00 48 1013.7
20260503190016 73 180 3.0 12.0 0.00 0.00 0.00 49 1013.8
20260503185506 73 204 5.0 12.0 0.00 0.00 0.00 48 1013.9
20260503185006 73 220 7.0 11.0 0.00 0.00 0.00 47 1013.9
20260503184520 73 149 2.0 11.0 0.00 0.00 0.00 48 1013.9
20260503184012 73 159 4.0 11.0 0.00 0.00 0.00 47 1013.9
20260503183513 72 205 2.0 10.0 0.00 0.00 0.00 49 1014.0
20260503183036 72 144 1.0 7.0 0.00 0.00 0.00 49 1014.0
20260503182509 72 208 3.0 8.0 0.00 0.00 0.00 47 1014.0
20260503182010 72 167 3.0 8.0 0.00 0.00 0.00 48 1014.0
20260503181527 72 160 2.0 10.0 0.00 0.00 0.00 50 1014.0
20260503181003 71 136 4.0 10.0 0.00 0.00 0.00 49 1014.1
20260503180503 72 172 2.0 7.0 0.00 0.00 0.00 49 1014.1
20260503180019 71 130 2.0 7.0 0.00 0.00 0.00 48 1014.1
20260503175506 72 182 1.0 6.0 0.00 0.00 0.00 50 1014.1
20260503175006 71 158 2.0 6.0 0.00 0.00 0.00 50 1014.1
20260503174517 71 203 3.0 6.0 0.00 0.00 0.00 50 1014.2
20260503174008 71 227 0.0 3.0 0.00 0.00 0.00 54 1014.1
20260503173507 70 94 1.0 8.0 0.00 0.00 0.00 53 1014.3
20260503173024 70 252 3.0 8.0 0.00 0.00 0.00 53 1014.3
20260503172506 69 224 1.0 5.0 0.00 0.00 0.00 55 1014.3
20260503172011 69 169 2.0 5.0 0.00 0.00 0.00 55 1014.4
20260503171524 69 204 1.0 9.0 0.00 0.00 0.00 56 1014.5
20260503171010 68 236 3.0 9.0 0.00 0.00 0.00 55 1014.5
20260503170511 68 224 1.0 6.0 0.00 0.00 0.00 56 1014.6
20260503151004 57 234 2.0 5.0 0.00 0.00 0.00 79 1014.9
20260503150503 56 211 3.0 6.0 0.00 0.00 0.00 79 1014.9
20260503131010 47 191 0.0 0.0 0.00 0.00 0.00 91 1014.5
20260503130507 47 191 0.0 0.0 0.00 0.00 0.00 90 1014.5
20260503110503 48 194 0.0 0.0 0.00 0.00 0.00 88 1014.9
20260503090509 50 205 0.0 0.0 0.00 0.00 0.00 84 1015.0
20260503081514 51 173 0.0 0.0 0.00 0.00 0.00 83 1015.0
20260503081006 51 173 0.0 0.0 0.00 0.00 0.00 83 1015.0
20260503080507 51 173 0.0 0.0 0.00 0.00 0.00 83 1015.0
20260503072503 52 349 0.0 0.0 0.00 0.00 0.00 81 1015.0
20260503072002 53 347 0.0 0.0 0.00 0.00 0.00 80 1014.9
20260503071507 53 347 0.0 0.0 0.00 0.00 0.00 80 1014.9
20260503071002 53 347 0.0 0.0 0.00 0.00 0.00 80 1014.9
20260503070502 53 347 0.0 0.0 0.00 0.00 0.00 79 1014.9
20260503055002 56 347 0.0 0.0 0.00 0.00 0.00 72 1014.9
20260503054507 56 347 0.0 0.0 0.00 0.00 0.00 70 1014.9
20260503054006 56 347 0.0 0.0 0.00 0.00 0.00 71 1014.9
20260503053501 57 347 0.0 0.0 0.00 0.00 0.00 71 1014.9
20260503053002 57 347 0.0 0.0 0.00 0.00 0.00 70 1014.9
20260503052501 58 347 0.0 0.0 0.00 0.00 0.00 70 1014.9
20260503052002 58 347 0.0 0.0 0.00 0.00 0.00 69 1015.0
20260503051507 58 347 0.0 0.0 0.00 0.00 0.00 69 1014.9
20260503051001 59 347 0.0 0.0 0.00 0.00 0.00 67 1015.0
20260503050503 59 347 0.0 0.0 0.00 0.00 0.00 66 1014.9
20260503050025 59 347 0.0 0.0 0.00 0.00 0.00 66 1014.9
20260503045507 60 347 0.0 0.0 0.00 0.00 0.00 65 1014.8
20260503045010 60 347 0.0 0.0 0.00 0.00 0.00 64 1014.7
20260503044516 60 347 0.0 0.0 0.00 0.00 0.00 63 1014.6
20260503044005 61 347 0.0 0.0 0.00 0.00 0.00 62 1014.6
20260503043506 61 347 0.0 0.0 0.00 0.00 0.00 60 1014.6
20260503043002 62 347 0.0 0.0 0.00 0.00 0.00 61 1014.5
20260503042502 62 347 0.0 0.0 0.00 0.00 0.00 56 1014.5
20260503042001 62 347 0.0 0.0 0.00 0.00 0.00 56 1014.4
20260503041508 62 349 0.0 0.0 0.00 0.00 0.00 57 1014.4
20260503041003 63 350 0.0 0.0 0.00 0.00 0.00 55 1014.3
20260503040502 64 259 0.0 0.0 0.00 0.00 0.00 53 1014.3
20260503040007 64 242 0.0 0.0 0.00 0.00 0.00 53 1014.2
20260503035503 64 245 0.0 0.0 0.00 0.00 0.00 52 1014.1
20260503035004 65 253 0.0 1.0 0.00 0.00 0.00 51 1014.1
20260503034512 65 253 0.0 2.0 0.00 0.00 0.00 50 1014.0
20260503034006 66 219 0.0 2.0 0.00 0.00 0.00 51 1014.0
20260503033504 66 147 0.0 0.0 0.00 0.00 0.00 50 1013.9
20260503033023 67 202 0.0 3.0 0.00 0.00 0.00 49 1013.8
20260503032510 67 207 1.0 3.0 0.00 0.00 0.00 48 1013.8
20260503032017 67 141 1.0 3.0 0.00 0.00 0.00 48 1013.8
20260503031520 68 148 0.0 5.0 0.00 0.00 0.00 48 1013.7
20260503031005 68 181 3.0 5.0 0.00 0.00 0.00 46 1013.7
20260503030504 68 181 0.0 3.0 0.00 0.00 0.00 47 1013.6
20260503030007 69 139 1.0 5.0 0.00 0.00 0.00 46 1013.6
20260503025502 69 211 1.0 8.0 0.00 0.00 0.00 46 1013.5
20260503025002 69 173 3.0 8.0 0.00 0.00 0.00 45 1013.5
20260503024509 70 172 1.0 5.0 0.00 0.00 0.00 46 1013.6
20260503024003 70 165 2.0 5.0 0.00 0.00 0.00 46 1013.5
20260503023505 70 153 3.0 5.0 0.00 0.00 0.00 45 1013.5
20260503023014 70 110 2.0 8.0 0.00 0.00 0.00 45 1013.5
20260503022506 70 198 3.0 9.0 0.00 0.00 0.00 46 1013.4
20260503022007 71 193 2.0 10.0 0.00 0.00 0.00 46 1013.4
20260503021520 71 223 4.0 10.0 0.00 0.00 0.00 46 1013.5
20260503021006 71 221 2.0 8.0 0.00 0.00 0.00 47 1013.5
20260503020509 71 162 3.0 9.0 0.00 0.00 0.00 46 1013.5
20260503020024 71 203 4.0 9.0 0.00 0.00 0.00 48 1013.5
20260503015509 71 202 2.0 12.0 0.00 0.00 0.00 48 1013.5
20260503015002 72 190 2.0 12.0 0.00 0.00 0.00 49 1013.6
20260503014505 72 184 3.0 12.0 0.00 0.00 0.00 49 1013.6
20260503014002 72 164 3.0 12.0 0.00 0.00 0.00 50 1013.6
20260503013502 72 185 4.0 11.0 0.00 0.00 0.00 49 1013.6
20260503013020 72 136 5.0 10.0 0.00 0.00 0.00 49 1013.6
20260503012503 72 148 5.0 11.0 0.00 0.00 0.00 49 1013.7
20260503012008 72 141 3.0 11.0 0.00 0.00 0.00 50 1013.7
20260503011521 73 188 4.0 9.0 0.00 0.00 0.00 49 1013.7
20260503011004 72 217 5.0 10.0 0.00 0.00 0.00 49 1013.7
20260503010503 73 141 6.0 10.0 0.00 0.00 0.00 49 1013.7
20260503010020 73 131 4.0 12.0 0.00 0.00 0.00 48 1013.7
20260503005507 72 151 4.0 12.0 0.00 0.00 0.00 49 1013.7
20260503005009 73 156 4.0 10.0 0.00 0.00 0.00 49 1013.8
20260503004524 73 184 4.0 13.0 0.00 0.00 0.00 49 1013.7
20260503004007 73 159 6.0 13.0 0.00 0.00 0.00 49 1013.8
20260503003508 73 190 4.0 13.0 0.00 0.00 0.00 50 1013.7
20260503003004 73 223 4.0 10.0 0.00 0.00 0.00 51 1013.7
20260503002502 73 146 3.0 11.0 0.00 0.00 0.00 52 1013.7
20260503002005 73 221 6.0 11.0 0.00 0.00 0.00 51 1013.8
20260503001511 73 193 5.0 11.0 0.00 0.00 0.00 51 1013.7
20260503001004 73 146 5.0 11.0 0.00 0.00 0.00 51 1013.7
20260503000506 74 127 4.0 10.0 0.00 0.00 0.00 51 1013.8
20260503000016 73 194 5.0 10.0 0.00 0.00 0.00 52 1013.8
20260502235504 74 203 5.0 9.0 0.00 0.00 0.00 52 1013.8
20260502235004 74 233 2.0 13.0 0.00 0.00 0.00 52 1013.9
20260502234521 73 227 4.0 13.0 0.00 0.00 0.00 53 1014.0
20260502234006 73 176 3.0 13.0 0.00 0.00 0.00 53 1014.1
20260502233510 73 220 3.0 13.0 0.00 0.00 0.00 54 1014.1
20260502233024 73 225 7.0 12.0 0.00 0.00 0.00 54 1014.2
20260502232507 73 227 6.0 12.0 0.00 0.00 0.00 53 1014.3
20260502232010 73 293 4.0 10.0 0.00 0.00 0.00 54 1014.3
20260502231538 73 240 4.0 10.0 0.00 0.00 0.00 54 1014.4
20260502231005 73 275 5.0 10.0 0.00 0.00 0.00 53 1014.4
20260502230506 73 245 4.0 10.0 0.00 0.00 0.00 53 1014.5
20260502230011 73 163 4.0 12.0 0.00 0.00 0.00 53 1014.6
20260502225507 72 141 4.0 15.0 0.00 0.00 0.00 53 1014.7
20260502225007 73 182 6.0 15.0 0.00 0.00 0.00 53 1014.8
20260502224516 73 191 4.0 9.0 0.00 0.00 0.00 53 1014.8
20260502224005 73 169 4.0 14.0 0.00 0.00 0.00 52 1014.7
20260502223502 73 276 4.0 14.0 0.00 0.00 0.00 50 1014.8
20260502223005 73 98 6.0 12.0 0.00 0.00 0.00 50 1014.9
20260502222502 73 100 4.0 11.0 0.00 0.00 0.00 51 1014.9
20260502222002 73 229 3.0 11.0 0.00 0.00 0.00 51 1015.0
20260502221506 73 174 2.0 11.0 0.00 0.00 0.00 51 1015.1
20260502221002 73 158 3.0 9.0 0.00 0.00 0.00 51 1015.2
20260502220502 73 199 5.0 9.0 0.00 0.00 0.00 52 1015.2
20260502220005 72 148 1.0 7.0 0.00 0.00 0.00 51 1015.2
20260502215502 72 223 2.0 13.0 0.00 0.00 0.00 50 1015.3
20260502215003 72 198 5.0 13.0 0.00 0.00 0.00 52 1015.3
20260502214506 71 229 2.0 13.0 0.00 0.00 0.00 54 1015.3
20260502214005 71 87 5.0 13.0 0.00 0.00 0.00 53 1015.4
20260502213505 71 117 5.0 9.0 0.00 0.00 0.00 54 1015.4
20260502213006 71 199 3.0 11.0 0.00 0.00 0.00 55 1015.5
20260502212504 71 207 4.0 12.0 0.00 0.00 0.00 55 1015.6
20260502212002 70 193 4.0 12.0 0.00 0.00 0.00 57 1015.7
20260502211517 70 165 5.0 11.0 0.00 0.00 0.00 58 1015.7
20260502211007 70 169 6.0 11.0 0.00 0.00 0.00 58 1015.8
20260502210502 69 161 4.0 11.0 0.00 0.00 0.00 58 1015.9
20260502210008 69 228 5.0 10.0 0.00 0.00 0.00 59 1015.9
20260502205502 70 186 4.0 10.0 0.00 0.00 0.00 58 1016.0
20260502205002 69 213 4.0 9.0 0.00 0.00 0.00 59 1015.9
20260502204507 69 98 3.0 14.0 0.00 0.00 0.00 61 1015.9
20260502204003 69 155 4.0 14.0 0.00 0.00 0.00 60 1016.0